Location: *
(58.4167°N, 22.5000°E)
Time: 12:15:08
(UTC+00:00)

Cosmos 1242 Rocket - Pass Details

Date: 22 September 2019
Orbit: 450 x 488 km, 81.2° (Epoch: 18 October)

Event Time Altitude Azimuth Distance (km) Brightness Sun altitude
Rises 19:43:35 0° 345° (NNW) 2,507 7.2 -23.6°
Reaches altitude 10° 19:45:41 10° 350° (N) 1,633 6.0 -23.7°
Enters shadow 19:48:08 39° 9° (N) 725 3.6 -24.0°
